Location: Gniazdowice
(50.2124°N, 20.2673°E)
Time: 00:10:13
(UTC+00:00)

Cosmos 1814 Rocket - Pass Details

Date: 23 May 2024
Orbit: 743 x 785 km, 74.1° (Epoch: 18 June)

Event Time Altitude Azimuth Distance (km) Brightness Sun altitude
Rises 00:53:15 0° 335° (NNW) 3,219 7.7 -12.9°
Reaches altitude 10° 00:55:37 10° 335° (NNW) 2,296 6.9 -12.7°
Maximum altitude 01:00:50 85° 249° (WSW) 774 4.0 -12.2°
Drops below altitude 10° 01:06:05 10° 160° (SSE) 2,308 6.2 -11.7°
Sets 01:08:28 0° 160° (SSE) 3,237 6.9 -11.5°
